Regional Weather Roundup
Issued by NWS

Home | Current Version | Previous Version | Graphics & Text | Print | Product List | Glossary On
Versions: 1 2 3 4 5 6 7 8 9 10 11 12 13 14 15 16 17 18 19 20 21 22 23 24 25 26 27 28 29 30 31 32 33 34 35 36 37 38 39 40 41 42 43 44 45 46 47 48 49 50
000
ASUS45 KSLC 271610
RWRUT

UTAH REGIONAL WEATHER ROUNDUP
NATIONAL WEATHER SERVICE SALT LAKE CITY UT
900 AM MST TUE JAN 27 2015

UTZ001>011-023>025-271700-

NORTHERN UTAH

CITY           SKY/WX    TMP DP  RH WIND       PRES   REMARKS
BRIGHAM CITY   PTSUNNY   32  30  93 E5        30.23R WCI  27
HILL AFB       PTSUNNY   37  30  75 S3        30.21R
LOGAN          FOG       27  26  96 CALM      30.20R VSB 3/4
OGDEN          PTSUNNY   35  31  85 SE6       30.21R WCI  30
PROVO AIRPORT  PTSUNNY   32  30  93 CALM      30.25R
SALT LAKE CITY PTSUNNY   33  30  88 SE5       30.21R WCI  29
VERNAL         PTSUNNY   26  21  81 CALM      30.33F
WENDOVER       CLOUDY    34  28  80 CALM      30.24R
HEBER CITY     PTSUNNY   28  27  93 CALM      30.24S
WEST JORDAN    CLOUDY    37  34  87 CALM      30.21R

$$

UTZ012>022-026-027-271700-

SOUTHERN/CENTRAL UTAH

CITY           SKY/WX    TMP DP  RH WIND       PRES   REMARKS
BLANDING       CLOUDY    40  29  65 NE6       30.42F
BRYCE CANYON   LGT SNOW  32  32 100 CALM      30.34R
CEDAR CITY     PTSUNNY   39  37  92 S9        30.27R WCI  33
DELTA          CLOUDY    39  36  89 SE7       30.27F WCI  34
MILFORD        PTSUNNY   39  36  89 SE9       30.26R WCI  33
MOAB/CYNLANDS  SUNNY     34  29  82 N8        30.31R WCI  27
PRICE          PTSUNNY   36  25  64 VRB3      30.30R
ST GEORGE      CLOUDY    46  41  81 CALM      30.31R
KANAB            N/A     41  41 100 NW6       30.37R

$$

REGIONAL REPORTS     COLORADO/ARIZONA

CITY           SKY/WX    TMP DP  RH WIND       PRES   REMARKS
CRAIG, CO      SUNNY     15  13  91 W3        30.34R
GRAND JUNCTION MOSUNNY   34  28  79 SE5       30.31S WCI  30
RIFLE          MOSUNNY   29  24  82 CALM      30.36R
MONTROSE       PTSUNNY   34  26  72 SE7       30.35S WCI  28
CORTEZ         MOSUNNY   39  27  62 E6        30.36S WCI  35
PAGE, AZ       NOT AVBL
GRAND CANYON   LGT RAIN  40  39  97 S9        30.35R FOG     WCI  34
KINGMAN        MOSUNNY   46  43  89 SE7       30.28R
FLAGSTAFF      MOSUNNY   40  35  83 SW12      30.36R WCI  33

$$

REGIONAL REPORTS    NEVADA/IDAHO/WYOMING

CITY           SKY/WX    TMP DP  RH WIND       PRES   REMARKS
LAS VEGAS, NV  PTSUNNY   51  49  92 S5        30.22R
ELY            CLOUDY    36  34  92 SE3       30.21S
ELKO           CLOUDY    35  29  78 CALM      30.16R
POCATELLO, ID  SUNNY     29  28  96 CALM      30.16R
BURLEY         MOCLDY    36  31  82 E8        30.10R WCI  30
EVANSTON, WY   PTSUNNY   36  22  56 S5        30.23S WCI  32
ROCK SPRINGS   MOSUNNY   30  25  81 W3        30.24S
KEMMERER       PTSUNNY   28  21  74 NW8       30.25S WCI  20

$$



USA.gov is the U.S. government's official web portal to all federal, state and local government web resources and services.